Weather reports worldwide

Advertisment
Aboyne, United Kingdom (3080): temperature & dewpoint: 15.08.2017 11:00:00 - 21.08.2017 11:00:00 (BST)Aboyne, United Kingdom (3080): temperature -20cm & temperature -100cm: 15.08.2017 11:00:00 - 21.08.2017 11:00:00 (BST)Aboyne, United Kingdom (3080): wind speed & gusts: 15.08.2017 11:00:00 - 21.08.2017 11:00:00 (BST)Aboyne, United Kingdom (3080): wind direction: 15.08.2017 11:00:00 - 21.08.2017 11:00:00 (BST)Aboyne, United Kingdom (3080): reduced air pressure: 15.08.2017 11:00:00 - 21.08.2017 11:00:00 (BST)Aboyne, United Kingdom (3080): visibility: 15.08.2017 11:00:00 - 21.08.2017 11:00:00 (BST)Aboyne, United Kingdom (3080): precipitation: 15.08.2017 11:00:00 - 21.08.2017 11:00:00 (BST)
Date & Time tt [°C] td [°C] tt -20cm [°C] tt -100cm [°C] ff [km/h] ff [kn] fx [km/h] fx [kn] dd ppp [hPa] vv [km] rr [mm]
21.08.2017 11:00:00 - - - - - - - - - - - -
21.08.2017 10:00:00 14,2 11,4 14,7 13,7 5 3 - - E 1021,4 40 0,0
21.08.2017 09:00:00 13,1 11,6 - - 4 2 - - E 1021,8 45 0,0
21.08.2017 08:00:00 11,9 11,7 - - 2 1 - - E 1021,7 25 0,0
21.08.2017 07:00:00 10,1 10,1 - - 0 0 - - N 1021,7 15 0,0
21.08.2017 06:00:00 10,1 9,8 - - 2 1 - - ENE 1021,8 15 0,0
21.08.2017 05:00:00 11,5 11,2 - - 8 4 - - E 1021,6 27 0,0
21.08.2017 04:00:00 11,5 11,1 - - 8 4 - - ENE 1021,9 28 0,0
21.08.2017 03:00:00 11,5 11,0 - - 8 4 - - E 1021,9 26 0,0
21.08.2017 02:00:00 11,8 11,1 - - 5 3 - - ENE 1022,0 28 0,0
21.08.2017 01:00:00 12,0 11,2 - - 8 4 - - E 1022,0 23 0,0
21.08.2017 00:00:00 12,1 11,3 - - 9 5 - - E 1022,1 30 0,0
20.08.2017 23:00:00 12,2 11,4 - - 13 7 - - ESE 1021,9 23 0,0
20.08.2017 22:00:00 12,7 11,4 - - 15 8 - - E 1021,5 45 0,0
20.08.2017 21:00:00 13,0 10,9 - - 9 5 - - ENE 1021,1 50 0,0
20.08.2017 20:00:00 14,3 10,8 - - 9 5 - - ENE 1020,4 50 0,0
20.08.2017 19:00:00 15,7 11,1 - - 11 6 - - E 1020,1 40 0,0
20.08.2017 18:00:00 16,5 10,6 - - 11 6 - - E 1019,8 35 0,0
20.08.2017 17:00:00 17,2 10,6 - - 9 5 - - NNE 1019,5 50 0,0
20.08.2017 16:00:00 17,3 9,8 - - 5 3 - - NNW 1019,3 50 0,0
20.08.2017 15:00:00 17,9 9,6 - - 8 4 - - N 1019,0 50 0,0
20.08.2017 14:00:00 16,7 8,8 - - 11 6 - - NNW 1019,2 50 0,0
20.08.2017 13:00:00 17,4 9,9 - - 13 7 - - NNW 1018,8 28 0,0
20.08.2017 12:00:00 16,5 9,8 - - 13 7 - - WNW 1018,5 45 0,0
20.08.2017 11:00:00 14,7 8,8 - - 16 9 - - NW 1018,2 40 0,0
20.08.2017 10:00:00 15,4 9,5 14,5 13,9 16 9 - - NW 1017,6 50 0,0
20.08.2017 09:00:00 14,3 9,2 - - 21 11 - - WNW 1017,1 35 0,0
20.08.2017 08:00:00 13,0 9,1 - - 18 10 - - WNW 1016,7 35 0,0
20.08.2017 07:00:00 12,0 8,7 - - 8 4 - - W 1016,3 45 0,0
20.08.2017 06:00:00 11,9 8,8 - - 13 7 - - W 1015,3 45 0,0
20.08.2017 05:00:00 12,5 9,2 - - 13 7 - - W 1014,8 50 0,0
20.08.2017 04:00:00 12,3 9,3 - - 11 6 - - W 1014,2 45 0,0
20.08.2017 03:00:00 12,1 9,1 - - 13 7 - - W 1013,4 50 0,0
20.08.2017 02:00:00 12,5 9,1 - - 21 11 - - W 1013,0 45 0,0
20.08.2017 01:00:00 12,6 9,4 - - 15 8 - - WNW 1012,5 40 0,0
20.08.2017 00:00:00 13,0 9,8 - - 13 7 - - W 1012,0 50 0,0
19.08.2017 23:00:00 13,2 10,2 - - 16 9 - - W 1011,3 45 0,0
19.08.2017 22:00:00 12,4 10,1 - - 16 9 - - WNW 1010,4 45 0,0
19.08.2017 21:00:00 13,0 10,4 - - 13 7 - - W 1009,8 50 0,0
19.08.2017 20:00:00 13,9 11,2 - - 15 8 - - W 1008,8 35 0,0
19.08.2017 19:00:00 14,6 12,6 - - 11 6 - - W 1007,8 35 0,2
19.08.2017 18:00:00 13,8 11,4 - - 21 11 - - WNW 1007,3 11 0,2
19.08.2017 17:00:00 15,2 12,0 - - 11 6 - - W 1006,1 50 0,0
19.08.2017 16:00:00 17,3 11,6 - - 21 11 - - WNW 1004,9 35 0,0
19.08.2017 15:00:00 14,8 10,9 - - 22 12 - - WNW 1004,4 11 0,4
19.08.2017 14:00:00 17,9 10,7 - - 21 11 - - W 1003,1 6 0,0
19.08.2017 13:00:00 16,4 10,0 - - 26 14 - - W 1002,8 40 0,0
19.08.2017 12:00:00 16,5 9,6 - - 22 12 - - W 1002,5 40 0,0
19.08.2017 11:00:00 16,0 9,8 - - 28 15 - - WSW 1002,2 50 0,0
19.08.2017 10:00:00 15,7 10,0 14,5 13,9 26 14 - - WSW 1002,2 45 0,0
19.08.2017 09:00:00 13,6 8,1 - - 28 15 - - W 1002,1 35 0,0
19.08.2017 08:00:00 12,5 7,3 - - 22 12 - - W 1001,8 40 0,0
19.08.2017 07:00:00 11,3 7,2 - - 15 8 - - W 1002,2 28 0,0
19.08.2017 06:00:00 10,6 7,4 - - 11 6 - - W 1002,1 40 0,0
19.08.2017 05:00:00 10,2 8,0 - - 11 6 - - W 1002,0 35 0,0
19.08.2017 04:00:00 11,8 8,9 - - 16 9 - - W 1001,6 50 0,0
19.08.2017 03:00:00 12,3 9,7 - - 13 7 - - W 1001,5 50 0,0
19.08.2017 02:00:00 11,6 10,6 - - 8 4 - - W 1001,0 50 0,0
19.08.2017 01:00:00 12,2 9,9 - - 9 5 - - NW 1000,5 45 0,0
19.08.2017 00:00:00 11,6 9,9 - - 11 6 - - WNW 999,9 40 0,0
18.08.2017 23:00:00 11,5 9,5 - - 11 6 - - W 999,5 45 0,0
18.08.2017 22:00:00 12,1 9,5 - - 13 7 - - WNW 999,4 50 0,0
18.08.2017 21:00:00 12,4 9,3 - - 16 9 - - W 999,0 50 0,0
18.08.2017 20:00:00 12,3 10,2 - - 13 7 - - W 998,8 50 0,0
18.08.2017 19:00:00 12,7 10,2 - - 18 10 - - W 998,4 50 0,0
18.08.2017 18:00:00 12,2 10,8 - - 11 6 - - W 998,2 29 0,2
18.08.2017 17:00:00 11,9 10,4 - - 13 7 - - W 998,2 30 0,8
18.08.2017 16:00:00 12,4 10,1 - - 13 7 - - W 997,9 45 0,0
18.08.2017 15:00:00 13,5 8,8 - - 21 11 - - WSW 997,7 50 0,0
18.08.2017 14:00:00 12,5 9,6 - - 8 4 - - W 997,9 25 0,0
18.08.2017 13:00:00 12,3 8,4 - - 21 11 - - W 997,8 45 0,0
18.08.2017 12:00:00 12,2 8,8 - - 18 10 - - W 997,6 50 0,4
18.08.2017 11:00:00 11,5 9,5 - - 11 6 - - W 997,7 24 0,2
18.08.2017 10:00:00 12,2 10,7 15,0 13,9 18 10 - - W 997,4 13 0,2
18.08.2017 09:00:00 12,9 12,9 - - 4 2 - - ENE 996,8 29 0,0
18.08.2017 08:00:00 11,6 11,6 - - 5 3 - - W 997,4 15 1,0
18.08.2017 07:00:00 12,0 11,2 - - 5 3 - - SW 997,9 17 0,2
18.08.2017 06:00:00 12,1 11,9 - - 8 4 - - ESE 998,3 25 0,0
18.08.2017 05:00:00 11,3 11,3 - - 8 4 - - SSE 998,8 24 0,0
18.08.2017 04:00:00 9,7 9,7 - - 8 4 - - E 999,5 14 0,0
18.08.2017 03:00:00 9,6 9,3 - - 4 2 - - E 1000,3 21 0,0
18.08.2017 02:00:00 10,2 10,2 - - 4 2 - - WSW 1001,0 27 0,0
18.08.2017 01:00:00 10,1 10,0 - - 8 4 - - W 1001,7 30 0,0
18.08.2017 00:00:00 10,8 10,3 - - 2 1 - - SSW 1002,3 50 0,0
17.08.2017 23:00:00 12,5 11,1 - - 4 2 - - NE 1002,4 50 0,2
17.08.2017 22:00:00 13,5 11,2 - - 4 2 - - E 1002,4 45 0,0
17.08.2017 21:00:00 13,6 10,2 - - 5 3 - - ENE 1002,6 50 0,0
17.08.2017 20:00:00 17,1 10,6 - - 9 5 - - SW 1002,3 26 0,0
17.08.2017 19:00:00 17,5 11,3 - - 24 13 - - WSW 1002,1 40 0,0
17.08.2017 18:00:00 18,5 11,5 - - 16 9 - - SW 1002,0 40 0,0
17.08.2017 17:00:00 19,0 11,5 - - 16 9 - - WSW 1002,1 45 0,0
17.08.2017 16:00:00 20,3 11,3 - - 22 12 - - WSW 1001,8 30 0,0
17.08.2017 15:00:00 20,1 12,1 - - 11 6 - - SSW 1001,9 40 0,0
17.08.2017 14:00:00 20,6 12,0 - - 22 12 - - WSW 1002,0 25 0,0
17.08.2017 13:00:00 20,0 12,4 - - 21 11 46 25 SW 1001,9 26 0,0
17.08.2017 12:00:00 19,1 10,5 - - 21 11 - - WSW 1002,0 30 0,0
17.08.2017 11:00:00 18,5 10,3 - - 18 10 - - WSW 1002,0 30 0,0
17.08.2017 10:00:00 17,1 9,8 14,7 13,9 18 10 - - WSW 1002,3 35 0,0
17.08.2017 09:00:00 15,7 11,7 - - 11 6 - - E 1002,5 28 0,0
17.08.2017 08:00:00 13,8 11,5 - - 5 3 - - ENE 1002,6 30 0,0
17.08.2017 07:00:00 9,4 9,3 - - 4 2 - - NE 1002,8 23 0,0
17.08.2017 06:00:00 10,3 9,2 - - 4 2 - - N 1002,3 20 0,0
17.08.2017 05:00:00 14,4 13,5 - - 8 4 - - W 1002,1 45 0,0
17.08.2017 04:00:00 14,6 13,8 - - 13 7 - - SSE 1002,0 40 0,0
17.08.2017 03:00:00 14,7 13,8 - - 11 6 - - ESE 1002,3 50 0,0
17.08.2017 02:00:00 14,7 13,5 - - 9 5 - - E 1002,5 50 0,0
17.08.2017 01:00:00 14,1 13,7 - - 15 8 - - E 1003,0 30 0,0
17.08.2017 00:00:00 14,3 13,3 - - 11 6 - - ESE 1003,8 26 0,0
16.08.2017 23:00:00 13,8 13,4 - - 16 9 - - E 1005,0 11 0,0
16.08.2017 22:00:00 13,8 13,1 - - 16 9 - - ESE 1005,3 13 0,0
16.08.2017 21:00:00 13,5 12,6 - - 13 7 - - E 1006,2 11 0,6
16.08.2017 20:00:00 13,7 12,3 - - 16 9 - - ESE 1006,6 16 0,0
16.08.2017 19:00:00 14,3 12,3 - - 18 10 - - SSE 1007,2 10 0,0
16.08.2017 18:00:00 14,4 12,0 - - 16 9 - - SSE 1007,9 25 0,0
16.08.2017 17:00:00 14,6 11,7 - - 13 7 - - SSE 1009,1 19 0,0
16.08.2017 16:00:00 14,9 10,6 - - 21 11 - - S 1010,0 45 0,0
16.08.2017 15:00:00 15,4 9,9 - - 18 10 46 25 S 1010,2 30 0,0
16.08.2017 14:00:00 15,9 9,5 - - 18 10 - - SSW 1010,5 40 0,0
16.08.2017 13:00:00 16,5 9,1 - - 13 7 - - S 1011,1 40 0,0
16.08.2017 12:00:00 18,1 11,9 - - 11 6 - - SSE 1011,2 30 0,0
16.08.2017 11:00:00 16,5 12,0 - - 18 10 - - S 1012,5 35 0,0
16.08.2017 10:00:00 15,7 11,0 14,7 13,9 11 6 - - S 1013,0 40 0,0
16.08.2017 09:00:00 14,5 10,5 - - 5 3 - - ESE 1013,6 40 0,0
16.08.2017 08:00:00 9,5 9,5 - - 5 3 - - E 1013,9 40 0,0
16.08.2017 07:00:00 5,3 5,3 - - 4 2 - - NNW 1014,4 29 0,0
16.08.2017 06:00:00 3,9 3,9 - - 2 1 - - WNW 1014,7 2,2 0,0
16.08.2017 05:00:00 3,7 3,7 - - 2 1 - - W 1014,3 27 0,0
16.08.2017 04:00:00 3,3 3,3 - - 5 3 - - NE 1014,7 16 0,0
16.08.2017 03:00:00 4,7 4,7 - - 4 2 - - NW 1014,4 27 0,0
16.08.2017 02:00:00 5,4 5,4 - - 5 3 - - W 1014,1 30 0,0
16.08.2017 01:00:00 5,3 5,1 - - 4 2 - - WNW 1014,0 50 0,0
16.08.2017 00:00:00 6,9 6,2 - - 5 3 - - SSE 1013,8 45 0,0
15.08.2017 23:00:00 9,9 7,1 - - 2 1 - - ENE 1013,0 50 0,0
15.08.2017 22:00:00 9,1 7,2 - - 5 3 - - WNW 1012,5 12 0,0
15.08.2017 21:00:00 12,2 8,3 - - 8 4 - - WNW 1011,5 50 0,0
15.08.2017 20:00:00 15,0 8,5 - - 13 7 - - W 1010,6 40 0,0
15.08.2017 19:00:00 16,6 8,7 - - 21 11 - - W 1009,7 45 0,0
15.08.2017 18:00:00 17,4 10,1 - - 18 10 - - W 1009,2 45 0,0
15.08.2017 17:00:00 17,9 9,5 - - 22 12 - - W 1008,5 40 0,0
15.08.2017 16:00:00 17,8 9,9 - - 21 11 46 25 W 1008,6 40 0,0
15.08.2017 15:00:00 16,9 10,0 - - 16 9 - - W 1008,3 45 0,0
15.08.2017 14:00:00 17,2 11,3 - - 16 9 - - WSW 1008,2 40 0,0
15.08.2017 13:00:00 17,5 10,0 - - 9 5 - - SW 1007,7 26 0,0
15.08.2017 12:00:00 17,1 10,8 - - 11 6 - - W 1007,4 50 0,0
15.08.2017 11:00:00 17,2 11,2 - - 8 4 - - W 1007,2 30 0,0

tt = temperature
td = dewpoint
tt -20cm = temperature -20cm
tt -100cm = temperature -100cm
ff = wind speed
fx = gusts
dd = wind direction
ppp = reduced air pressure
vv = visibility
rr = precipitation

Next stations